Temperature
19 19 19 20 20 19 19 19 19 19 19 19 19 19 19 19 19 19 19 19 19 18 18 18 18 18 18 18 18 18 18 18 17 17 17 17 17 17 17 17 17 17 17
20 20 20 20 20 20 19 19 19 19 19 19 19 19 19 19 19 19 19 19 19 18 18 18 18 18 18 18 18 18 18 18 18 17 17 17 17 17 17 17 17 17 17
20 20 20 20 20 20 19 19 19 19 19 19 19 19 19 19 19 18 18 19 19 18 18 18 18 18 18 18 18 18 18 18 18 17 17 17 17 17 17 17 17 17 17
20 20 20 20 20 20 19 19 19 19 19 19 19 19 19 19 18 18 18 19 19 18 18 18 18 18 18 18 17 17 17 17 17 17 17 17 17 17 17 17 17 17 17
20 20 20 20 20 19 19 19 19 19 19 19 19 19 19 19 19 18 18 18 18 18 18 18 18 18 17 17 17 17 17 17 17 17 17 17 17 17 17 17 17 17 17
20 20 20 20 20 19 19 19 19 19 19 19 19 19 19 19 19 18 18 18 18 18 18 18 18 17 17 17 17 17 17 17 17 17 17 17 17 17 17 17 17 17 17
20 20 20 20 20 20 19 19 19 19 19 19 19 19 19 19 18 18 18 18 18 18 18 18 18 17 17 17 17 17 17 17 17 17 17 17 17 17 17 17 17 17 17
21 20 20 20 20 20 19 19 19 19 19 19 19 19 19 19 19 18 18 18 18 18 18 18 18 17 17 17 17 17 17 17 17 17 17 17 17 17 17 17 17 17 17
21 20 20 20 20 20 20 19 19 19 19 19 19 18 19 19 18 18 18 18 18 18 18 18 18 18 17 17 17 17 17 18 18 18 18 17 17 17 17 17 17 17 17
21 21 20 20 20 20 20 19 19 19 19 19 19 18 19 19 19 18 18 18 18 18 18 18 18 18 17 17 17 17 17 18 18 18 18 17 17 17 17 17 17 17 17
20 20 20 20 20 20 20 19 19 19 19 18 18 18 18 19 19 18 18 18 18 18 18 18 18 18 17 17 17 17 17 18 18 18 18 18 17 17 17 17 17 17 17
20 20 20 20 20 20 20 19 19 19 19 19 18 18 18 18 18 18 18 18 18 18 18 18 18 18 18 17 17 17 17 17 18 18 18 18 17 17 17 17 17 17 17
21 20 20 20 20 20 20 19 19 19 19 19 18 18 18 18 18 18 18 18 18 18 18 18 18 18 18 18 17 17 17 18 18 18 18 18 17 17 17 17 17 17 17
21 21 20 20 20 20 20 20 19 19 19 19 19 18 18 18 18 18 18 18 18 18 18 18 18 18 18 18 17 17 18 18 18 18 18 17 17 17 17 17 17 17 17
21 21 20 20 20 20 20 19 19 19 19 19 19 18 18 18 18 18 18 18 18 18 18 18 18 18 18 18 18 18 18 18 18 18 18 18 17 17 17 17 17 17 17
21 21 20 20 20 20 20 19 19 19 19 19 19 18 18 18 18 18 18 18 18 18 18 18 18 18 18 18 18 18 18 18 18 18 18 18 18 17 17 17 17 17 17
21 21 20 20 20 20 20 19 19 19 19 19 19 19 18 18 18 18 18 18 18 18 18 18 18 18 18 18 18 18 18 18 18 18 18 18 17 17 17 17 17 17 17
21 21 20 20 20 20 20 19 19 19 19 19 19 19 19 18 18 18 18 18 18 18 18 18 18 18 18 18 17 17 18 18 18 18 17 17 17 17 17 17 17 17 17
21 21 21 20 20 20 20 19 19 19 19 19 19 19 19 19 18 18 18 18 18 18 18 18 18 18 18 18 18 18 17 18 18 17 17 17 17 17 17 17 17 17 17
21 21 21 20 20 20 20 19 19 19 19 19 19 19 19 19 19 18 18 18 18 18 18 18 18 18 18 18 18 17 17 17 17 17 17 17 17 17 17 17 17 17 17
21 21 20 20 20 20 20 19 19 19 19 19 19 19 19 19 19 18 18 18 18 18 18 18 18 18 18 18 18 17 17 17 17 17 17 17 17 17 17 17 17 17 17
21 21 20 20 20 20 20 20 19 19 19 19 19 19 19 19 19 19 18 18 18 18 18 18 18 18 18 18 18 17 17 17 17 17 17 17 17 17 17 17 17 17 17
22 21 21 20 20 20 20 20 19 19 19 19 19 19 19 19 19 19 19 18 18 18 18 18 18 18 18 18 18 18 18 18 18 18 18 17 17 17 17 17 17 17 17
22 22 21 20 20 20 20 20 19 19 19 19 19 19 19 19 19 19 19 18 18 18 18 18 18 18 18 18 18 18 18 18 18 18 18 18 18 18 17 17 17 17 17
22 21 21 20 20 20 20 20 19 19 19 19 19 19 19 18 19 19 18 18 18 18 18 18 18 18 18 18 18 18 18 18 18 18 18 18 18 18 18 18 17 17 17
22 21 21 20 20 20 19 19 19 19 19 19 19 19 19 18 18 18 18 18 18 18 18 18 18 18 18 18 18 18 18 18 18 18 18 18 18 18 18 18 18 18 17
Wind_Speed
6 10 17 18 19 19 20 21 21 21 22 22 23 23 23 22 22 21 21 21 21 20 20 20 20 20 20 20 20 20 20 21 20 20 20 20 19 19 20 20 19 17 19
10 13 18 19 19 19 20 20 21 21 21 21 22 22 22 21 21 21 21 21 20 20 20 20 20 20 20 19 19 20 20 20 20 20 19 19 18 18 18 18 17 16 19
13 14 18 19 19 19 19 20 20 20 20 20 21 21 21 21 21 21 20 20 20 19 19 19 19 19 18 18 18 19 19 20 19 19 18 15 16 18 18 18 18 18 18
14 14 17 20 20 20 19 19 20 20 20 20 20 20 20 20 20 20 20 20 19 19 19 18 18 18 17 17 17 18 18 19 18 17 14 13 14 17 18 18 18 18 17
12 14 18 20 20 20 19 19 19 19 19 19 19 19 20 20 19 19 19 19 19 18 18 17 17 16 16 15 15 15 16 16 17 15 13 13 14 17 17 17 17 17 17
11 14 18 20 20 20 19 19 19 19 19 19 19 19 19 19 19 18 18 18 17 17 16 16 15 14 13 13 13 14 14 16 16 14 13 13 13 16 16 16 17 17 16
12 13 18 20 20 19 19 19 19 18 18 18 18 18 18 18 18 18 18 17 16 15 15 14 13 12 12 12 12 12 14 16 15 13 13 13 14 16 16 16 16 16 16
14 13 17 20 20 19 18 18 18 18 18 18 18 18 18 17 17 17 17 16 15 15 14 13 12 11 10 10 11 13 15 15 14 13 13 13 15 15 15 16 16 16 16
14 12 12 16 18 18 18 18 18 17 17 17 17 17 17 17 17 16 16 15 14 14 13 12 11 10 9 10 10 11 13 15 14 13 13 12 14 15 15 15 15 15 15
12 10 10 12 13 14 16 17 17 17 17 17 17 17 16 16 16 16 14 14 13 12 11 10 9 8 8 8 9 11 14 14 13 12 12 12 14 14 15 15 15 14 14
12 9 9 9 11 12 13 15 16 16 16 16 15 16 15 13 14 13 13 13 12 11 10 9 7 6 7 7 8 11 12 11 12 11 11 13 14 14 14 14 14 14 13
14 12 10 10 10 12 12 13 12 12 13 12 12 13 12 11 11 12 13 13 12 10 9 7 5 4 5 4 5 8 10 11 11 10 11 14 14 14 14 14 13 13 13
16 15 12 11 11 9 8 10 9 10 10 11 12 12 12 10 9 10 9 9 9 8 6 4 3 2 2 2 4 6 9 10 9 9 12 14 14 14 13 13 13 12 12
16 15 14 12 10 9 10 8 8 8 8 8 11 13 11 7 7 7 6 7 6 5 4 3 2 2 2 3 4 6 9 9 9 10 12 14 14 13 13 13 12 12 11
15 16 15 13 12 10 9 7 8 7 8 10 11 12 13 8 6 6 6 7 6 6 5 4 3 2 2 3 5 7 9 10 11 11 11 14 13 13 13 12 12 12 11
17 16 15 14 13 10 9 7 7 9 10 11 11 12 14 12 9 6 5 5 6 7 7 5 4 3 2 3 4 7 9 10 11 11 11 13 13 13 12 12 12 11 11
16 15 15 15 13 12 11 9 9 10 11 9 10 13 14 13 11 8 5 5 6 8 7 5 3 3 2 3 3 5 7 9 10 11 11 12 12 12 13 12 12 12 11
15 15 16 15 13 12 10 8 7 9 9 9 11 12 14 14 13 9 5 5 8 8 6 4 2 3 2 2 3 3 5 7 9 10 11 12 12 11 13 13 13 13 12
16 15 14 12 13 11 9 7 7 7 7 9 11 11 12 14 14 10 6 6 9 6 4 4 2 3 3 2 3 3 3 4 5 9 9 11 13 13 13 14 14 14 13
14 13 12 12 11 10 8 6 5 5 5 7 8 10 13 13 13 11 7 7 8 5 4 3 3 3 3 3 2 2 2 3 4 5 7 10 11 13 13 13 13 13 14
13 12 12 13 11 10 7 6 6 5 5 5 6 11 13 13 13 10 6 5 5 5 6 6 4 3 2 2 3 1 2 1 3 4 5 5 8 12 13 14 13 13 12
15 14 13 14 13 11 8 6 5 5 4 5 5 8 11 12 12 10 7 6 6 5 5 5 4 3 2 3 4 3 1 3 3 4 4 5 7 9 10 13 14 14 13
16 16 15 14 12 11 9 6 5 3 3 3 4 6 8 11 12 10 9 7 6 6 6 6 5 6 4 3 3 4 4 4 3 3 4 5 6 5 6 11 14 16 16
16 14 12 13 12 11 11 10 9 7 7 7 5 6 6 9 11 11 10 9 7 6 6 6 6 5 5 4 3 3 3 4 3 2 3 3 5 7 7 8 11 14 17
15 15 13 13 12 11 11 11 10 8 6 4 4 6 7 7 8 10 10 8 7 7 7 6 6 6 5 5 4 3 2 2 3 3 3 3 3 5 6 7 8 11 15
12 13 13 13 13 13 12 11 11 10 8 7 7 7 6 5 6 7 9 8 8 7 8 7 7 7 6 6 5 4 4 3 4 4 4 4 4 4 5 5 6 9 14
Wind_Direction
134 134 124 117 112 108 105 102 101 100 99 98 99 100 102 104 105 106 106 106 105 105 104 105 106 107 107 108 109 111 112 112 113 114 114 113 113 112 111 111 110 109 110
139 135 126 120 116 112 109 106 104 103 103 103 103 105 106 107 107 108 108 107 106 105 105 105 106 107 108 109 111 113 113 113 112 112 111 111 112 112 112 112 112 113 112
132 133 128 124 120 117 114 111 108 108 107 107 107 108 108 109 109 110 109 108 107 107 107 107 108 108 109 110 113 114 114 113 110 109 106 105 110 113 113 114 113 113 112
131 132 130 127 123 120 118 116 113 112 112 110 110 110 110 110 110 110 110 110 109 109 108 108 110 110 110 112 114 115 115 114 111 109 104 106 111 114 115 115 114 114 113
126 130 133 129 126 124 122 120 117 116 116 115 114 113 113 113 112 113 113 112 112 111 111 111 111 110 111 113 114 114 115 116 111 109 102 103 111 117 117 117 116 116 116
126 131 134 131 129 127 125 124 123 121 119 118 117 116 116 116 117 117 116 114 114 114 113 112 111 110 110 111 111 111 113 116 111 109 105 106 113 119 119 118 117 117 116
131 134 136 134 132 131 130 129 128 126 124 123 121 120 119 119 119 118 117 116 116 115 114 112 111 112 109 105 106 110 115 115 114 110 107 109 116 119 120 120 118 118 117
136 136 139 138 136 134 132 132 131 130 129 127 125 124 122 122 122 121 120 120 119 119 118 118 117 116 109 103 101 109 117 118 120 117 113 116 121 120 120 121 120 121 120
138 137 138 141 140 138 136 135 134 134 134 132 130 129 127 126 126 125 124 124 124 124 124 125 124 120 112 107 102 110 121 120 120 123 122 122 125 124 123 122 122 121 122
139 139 138 138 139 139 140 139 139 139 139 137 136 135 133 132 132 130 130 130 130 130 131 131 128 124 118 110 105 112 119 118 121 122 125 131 131 129 128 129 128 127 127
144 145 143 141 141 140 143 145 145 145 146 144 143 141 135 131 133 135 138 137 136 136 136 135 132 126 119 111 105 112 118 121 124 128 134 138 137 135 134 133 132 132 131
156 158 156 152 152 153 152 145 147 148 148 146 146 139 137 139 142 144 147 144 144 142 141 144 143 132 120 113 107 109 119 124 128 135 142 144 142 140 139 138 137 137 136
162 162 164 163 163 163 147 151 151 150 151 152 154 151 149 147 148 146 149 147 148 149 147 150 149 132 139 132 117 120 129 130 137 143 149 149 148 147 146 145 145 144 144
166 167 169 168 167 164 156 161 160 159 163 163 166 163 154 148 148 153 154 157 160 162 162 165 174 182 198 183 153 143 140 138 144 148 156 156 154 154 154 154 154 152 152
169 169 171 170 171 166 161 169 169 170 172 171 170 170 163 157 159 162 164 172 178 176 177 179 188 190 169 164 150 146 143 145 148 152 160 162 161 163 163 164 164 163 163
171 171 171 171 170 165 167 171 169 174 172 170 171 173 170 166 163 162 165 171 179 184 185 183 178 162 146 137 136 139 144 150 155 157 161 165 169 171 172 173 174 174 174
170 169 170 170 168 167 168 171 168 173 171 171 174 174 171 168 166 166 167 171 184 185 177 166 153 131 118 125 130 141 148 156 160 164 166 169 175 180 182 184 185 185 185
166 168 170 171 169 168 166 165 162 169 171 172 173 173 172 172 169 167 167 174 180 174 163 154 145 124 125 132 140 154 152 159 165 171 174 179 182 188 193 194 195 195 196
168 168 168 164 167 165 160 157 156 160 168 172 172 172 173 173 172 169 172 176 172 163 160 168 150 144 152 154 160 155 160 167 171 179 186 192 193 196 198 201 203 204 206
166 166 165 162 166 159 151 145 142 152 168 172 173 175 174 176 175 171 172 175 168 158 165 160 153 150 155 163 154 147 178 181 182 187 195 199 202 204 205 205 208 212 216
164 168 170 167 169 161 158 159 160 167 172 176 180 179 179 179 178 174 172 170 170 171 177 167 152 162 169 141 98 54 350 263 212 201 196 191 201 207 206 209 209 211 217
172 175 176 175 173 172 172 168 164 162 172 178 181 181 183 180 179 183 173 175 176 174 175 172 159 159 179 156 139 123 8 329 298 222 203 201 204 204 205 212 211 212 215
178 179 181 178 175 174 167 156 151 139 144 170 183 186 191 186 184 186 179 174 179 178 184 186 175 166 179 194 167 151 160 216 262 289 230 215 205 203 211 212 214 215 217
184 182 179 178 175 174 170 174 175 179 189 197 189 187 190 190 189 188 182 179 182 183 186 194 185 176 167 189 204 202 182 163 167 248 290 248 222 215 214 215 217 217 218
181 178 176 178 179 177 182 184 184 191 195 181 177 184 193 196 194 193 188 184 189 192 194 197 189 188 182 182 187 188 189 181 161 165 234 267 260 235 220 216 214 215 219
177 177 177 179 183 183 184 187 189 190 187 181 185 191 198 202 203 202 194 191 193 195 198 202 200 199 199 194 193 188 178 178 190 179 202 231 242 253 232 221 217 215 219
Height
1521 1522 1523 1523 1523 1524 1524 1525 1525 1526 1526 1527 1528 1529 1530 1532 1533 1535 1536 1537 1538 1540 1541 1542 1543 1544 1545 1546 1547 1548 1549 1550 1551 1551 1552 1553 1554 1555 1556 1557 1557 1558 1559
1521 1522 1524 1525 1525 1526 1527 1527 1528 1529 1529 1530 1531 1532 1534 1535 1536 1538 1539 1540 1541 1542 1544 1545 1546 1547 1548 1549 1550 1550 1552 1552 1553 1554 1555 1556 1557 1558 1558 1559 1560 1560 1561
1522 1524 1525 1526 1527 1528 1529 1530 1531 1532 1532 1533 1534 1535 1537 1538 1539 1540 1542 1543 1544 1545 1546 1548 1549 1550 1551 1552 1552 1553 1554 1555 1556 1557 1557 1558 1559 1560 1561 1561 1562 1562 1563
1523 1525 1527 1528 1529 1530 1531 1532 1533 1534 1535 1536 1537 1538 1539 1541 1542 1543 1544 1545 1546 1547 1549 1550 1551 1552 1553 1554 1555 1556 1557 1558 1558 1559 1560 1561 1561 1562 1563 1564 1564 1565 1565
1525 1527 1528 1530 1531 1532 1533 1534 1535 1537 1538 1539 1540 1541 1542 1543 1545 1546 1547 1548 1549 1550 1551 1553 1554 1555 1556 1557 1558 1559 1559 1560 1561 1561 1562 1563 1563 1564 1565 1566 1566 1567 1567
1526 1528 1530 1531 1533 1534 1535 1536 1537 1539 1540 1541 1542 1543 1545 1546 1547 1548 1549 1550 1551 1553 1554 1555 1556 1558 1559 1559 1560 1561 1561 1562 1563 1564 1564 1565 1566 1566 1567 1568 1568 1569 1569
1527 1529 1531 1533 1534 1536 1537 1538 1539 1541 1542 1543 1545 1546 1547 1548 1549 1550 1552 1553 1554 1555 1556 1557 1559 1560 1561 1562 1562 1563 1564 1564 1565 1566 1567 1567 1568 1569 1569 1570 1570 1571 1572
1528 1530 1533 1534 1536 1537 1538 1540 1541 1543 1544 1545 1547 1548 1549 1550 1551 1552 1554 1555 1556 1557 1558 1560 1561 1562 1564 1564 1565 1565 1566 1566 1567 1568 1569 1569 1570 1571 1571 1572 1572 1573 1574
1530 1531 1533 1535 1537 1538 1540 1541 1543 1544 1546 1547 1548 1550 1551 1552 1553 1554 1556 1557 1558 1559 1561 1562 1563 1565 1566 1566 1567 1567 1568 1569 1569 1570 1571 1571 1572 1573 1573 1574 1575 1575 1576
1531 1533 1534 1536 1538 1539 1541 1542 1544 1546 1547 1549 1550 1552 1553 1554 1555 1556 1558 1559 1560 1562 1563 1564 1566 1567 1568 1569 1569 1570 1570 1571 1571 1572 1572 1573 1574 1575 1575 1576 1577 1577 1578
1532 1534 1535 1537 1539 1540 1542 1544 1545 1547 1549 1550 1552 1553 1554 1556 1557 1558 1559 1561 1562 1564 1565 1566 1567 1569 1570 1571 1571 1571 1572 1572 1573 1574 1574 1575 1576 1576 1577 1578 1578 1579 1580
1531 1534 1536 1538 1539 1541 1543 1544 1546 1548 1549 1551 1553 1554 1555 1557 1558 1560 1561 1563 1564 1565 1567 1568 1569 1570 1571 1572 1573 1573 1574 1574 1575 1575 1576 1576 1577 1578 1578 1579 1580 1581 1581
1530 1533 1536 1538 1540 1541 1543 1545 1547 1548 1550 1552 1553 1555 1556 1558 1559 1561 1562 1564 1565 1567 1568 1569 1571 1572 1573 1574 1574 1575 1575 1576 1576 1577 1577 1578 1578 1579 1580 1580 1581 1582 1583
1530 1533 1535 1538 1540 1542 1544 1545 1547 1549 1550 1552 1554 1555 1557 1559 1560 1562 1564 1565 1567 1568 1569 1571 1572 1573 1574 1574 1575 1576 1576 1577 1577 1578 1578 1579 1580 1580 1581 1582 1582 1583 1584
1529 1532 1535 1537 1540 1542 1544 1546 1548 1549 1551 1553 1554 1556 1558 1559 1561 1562 1564 1566 1567 1569 1570 1571 1573 1573 1574 1575 1576 1576 1577 1578 1578 1579 1579 1580 1581 1581 1582 1582 1583 1584 1584
1527 1531 1534 1536 1539 1541 1544 1546 1548 1549 1551 1553 1554 1556 1558 1559 1561 1563 1564 1566 1568 1569 1571 1572 1573 1574 1575 1575 1576 1577 1578 1578 1579 1580 1580 1581 1581 1582 1582 1583 1584 1584 1585
1526 1529 1532 1535 1538 1540 1543 1545 1547 1549 1551 1552 1554 1556 1557 1559 1561 1563 1565 1566 1568 1569 1571 1572 1574 1575 1575 1576 1577 1578 1578 1579 1580 1580 1581 1581 1582 1582 1583 1583 1584 1585 1585
1524 1528 1531 1534 1537 1540 1542 1545 1547 1549 1551 1552 1554 1555 1557 1559 1561 1563 1564 1566 1567 1569 1571 1572 1573 1575 1576 1576 1577 1578 1579 1579 1580 1580 1581 1581 1582 1582 1583 1583 1584 1585 1585
1523 1526 1529 1532 1535 1538 1541 1544 1546 1548 1550 1552 1553 1555 1556 1558 1560 1562 1563 1565 1566 1568 1570 1571 1573 1574 1575 1576 1577 1578 1579 1579 1580 1580 1581 1581 1582 1582 1583 1583 1584 1584 1584
1522 1525 1528 1531 1534 1537 1540 1543 1545 1547 1549 1551 1552 1554 1555 1557 1559 1561 1562 1564 1565 1567 1569 1570 1572 1573 1575 1576 1577 1578 1578 1579 1579 1580 1580 1581 1581 1582 1582 1582 1583 1583 1583
1520 1522 1526 1529 1532 1535 1537 1540 1542 1544 1547 1549 1551 1552 1554 1555 1557 1559 1561 1563 1564 1566 1567 1569 1570 1572 1573 1575 1576 1577 1578 1578 1578 1579 1579 1580 1580 1580 1581 1581 1582 1582 1582
1516 1519 1523 1526 1529 1532 1535 1538 1541 1543 1545 1547 1549 1551 1553 1554 1556 1557 1559 1561 1563 1564 1566 1567 1568 1570 1572 1573 1574 1575 1576 1578 1577 1577 1578 1578 1578 1579 1579 1580 1580 1580 1581
1511 1515 1518 1522 1526 1530 1533 1536 1539 1541 1543 1545 1546 1548 1550 1552 1554 1555 1557 1559 1560 1562 1564 1565 1567 1568 1569 1571 1572 1573 1574 1574 1574 1575 1575 1576 1576 1577 1577 1578 1578 1578 1579
1507 1511 1515 1520 1523 1526 1530 1532 1534 1536 1538 1540 1543 1545 1547 1549 1551 1553 1554 1556 1558 1559 1561 1563 1564 1566 1567 1568 1570 1571 1572 1572 1572 1572 1573 1573 1574 1574 1575 1575 1576 1576 1576
1504 1508 1513 1516 1520 1523 1526 1529 1531 1533 1536 1538 1541 1543 1545 1547 1548 1550 1551 1553 1554 1556 1558 1560 1561 1563 1564 1565 1567 1568 1569 1570 1570 1570 1570 1571 1571 1572 1572 1572 1573 1573 1574
1502 1506 1509 1513 1516 1520 1523 1526 1528 1530 1533 1535 1537 1539 1541 1543 1545 1546 1548 1549 1551 1552 1554 1555 1557 1559 1560 1562 1563 1564 1565 1566 1567 1567 1568 1568 1568 1569 1569 1569 1570 1570 1570